Location: Keppel Henge
(44.7900°N, 80.9447°W)
Time: 20:28:09
(UTC-05:00)

Vanguard 1 - All Passes

Search period start: 17 December 2017 00:00
Search period end: 27 December 2017 00:00
Orbit: 650 x 3834 km, 34.2° (Epoch: 16 December)

Date Brightness Start Highest point End Pass type
(mag) Time Alt. Az. Time Alt. Az. Time Alt. Az.
17 Dec - 04:46:49 10° SSE 04:56:04 14° SE 05:05:05 10° ESE visible
17 Dec - 06:59:10 10° SSW 07:19:00 37° SSE 07:35:07 10° E visible
17 Dec - 09:21:38 10° WSW 09:43:18 55° S 09:57:21 10° E daylight
17 Dec - 11:48:11 10° W 12:06:42 54° SSW 12:17:12 10° ESE daylight
17 Dec - 14:15:59 10° W 14:27:20 28° SW 14:34:29 10° SSE daylight
18 Dec - 05:02:50 10° S 05:16:36 20° SE 05:29:52 10° E visible
18 Dec - 07:19:05 10° SW 07:40:00 43° SSE 07:56:36 10° E visible
18 Dec - 09:42:43 10° WSW 10:04:30 58° S 10:18:19 10° E daylight
18 Dec - 12:09:44 10° W 12:27:36 50° SSW 12:37:48 10° SE daylight
18 Dec - 14:38:07 10° W 14:47:37 22° SW 14:54:05 10° S daylight
19 Dec - 05:20:46 10° S 05:37:13 26° SE 05:52:53 10° E visible
19 Dec - 07:39:22 10° SW 08:01:05 49° SSE 08:17:53 10° E daylight
19 Dec - 10:03:59 10° WSW 10:25:41 59° S 10:39:12 10° ESE daylight
19 Dec - 12:31:22 10° W 12:48:23 45° SSW 12:58:15 10° SE daylight
19 Dec - 15:00:52 10° W 15:07:46 16° SW 15:13:00 10° SSW daylight
20 Dec - 05:39:39 10° SSW 05:57:55 32° SE 06:15:07 10° E visible
20 Dec - 07:59:58 10° SW 08:22:14 54° SSE 08:39:04 10° E daylight
20 Dec - 10:25:22 10° WSW 10:46:50 59° S 11:00:02 10° ESE daylight
20 Dec - 12:53:05 10° W 13:09:01 39° SSW 13:18:32 10° SSE daylight
20 Dec - 15:25:54 10° WSW 15:27:48 10° SW 15:29:34 10° SW daylight
21 Dec - 03:47:05 10° SSE 03:56:18 14° SE 04:05:50 10° ESE visible
21 Dec - 05:59:08 10° SSW 06:18:43 39° SE 06:36:56 10° E visible
21 Dec - 08:20:48 10° WSW 08:43:27 58° SSE 09:00:10 10° E daylight
21 Dec - 10:46:51 10° W 11:07:55 57° SSW 11:20:46 10° ESE daylight
21 Dec - 13:14:56 10° W 13:29:29 33° SW 13:38:34 10° SSE daylight
22 Dec - 04:03:23 10° S 04:16:38 20° SE 04:30:35 10° E visible
22 Dec - 06:19:04 10° SW 06:39:37 45° SSE 06:58:28 10° E visible
22 Dec - 08:41:51 10° WSW 09:04:42 60° S 09:21:12 10° E daylight
22 Dec - 11:08:24 10° W 11:28:54 53° SSW 11:41:25 10° SE daylight
22 Dec - 13:37:03 10° W 13:49:48 26° SW 13:58:14 10° S daylight
23 Dec - 04:21:28 10° S 04:37:03 26° SE 04:53:40 10° E visible
23 Dec - 06:39:21 10° SW 07:00:38 50° SSE 07:19:51 10° E visible
23 Dec - 09:03:04 10° WSW 09:25:57 61° S 09:42:10 10° ESE daylight
23 Dec - 11:30:01 10° W 11:49:46 48° SSW 12:01:54 10° SE daylight
23 Dec - 13:59:38 10° W 14:09:58 20° SW 14:17:22 10° S daylight
24 Dec - 04:40:27 10° SSW 04:57:34 33° SE 05:15:59 10° E visible
24 Dec - 06:59:55 10° SW 07:21:47 55° SSE 07:41:06 10° E visible
24 Dec - 09:24:23 10° WSW 09:47:11 61° S 10:03:03 10° ESE daylight
24 Dec - 11:51:43 10° W 12:10:28 43° SSW 12:22:12 10° SE daylight
24 Dec - 14:23:15 10° W 14:30:00 14° SW 14:35:25 10° SSW daylight
25 Dec - 02:48:38 10° SSE 02:56:36 14° ESE 03:05:16 10° E visible
25 Dec - 04:59:59 10° SSW 05:18:14 39° SE 05:37:52 10° E visible
25 Dec - 07:20:43 10° WSW 07:43:00 59° SSE 08:02:17 10° E visible
25 Dec - 09:45:48 10° W 10:08:22 59° SSW 10:23:51 10° ESE daylight
25 Dec - 12:13:33 10° W 12:31:00 36° SW 12:42:15 10° SSE daylight
26 Dec - 03:04:56 10° SSE 03:16:45 19° SE 03:30:18 10° E visible
26 Dec - 05:19:56 10° SW 05:39:02 45° SSE 05:59:31 10° E visible
26 Dec - 07:41:42 10° WSW 08:04:17 62° S 08:23:25 10° E daylight
26 Dec - 10:07:17 10° W 10:29:26 56° SSW 10:44:31 10° SE daylight
26 Dec - 12:35:38 10° W 12:51:22 30° SW 13:01:58 10° S daylight
